FW5157 Weather Reports


time (UTC)temp
C
wind
direction
speed
KPH
gust
KPH
rain 1hr
cm
rain 24hr
cm
rain mn
cm
humidity
%
barometer
mb
20260510140052 12 271 3.2 16.1 0.00 0.00 0.00 67 1014.6
20260510134555 13 300 3.2 16.1 0.00 0.00 0.00 67 1014.7
20260510133044 13 340 3.2 14.5 0.00 0.00 0.00 66 1014.6
20260510131545 13 63 1.6 12.9 0.00 0.00 0.00 67 1014.7
20260510130052 13 51 1.6 14.5 0.00 0.00 0.00 69 1014.8
20260510124559 13 57 3.2 16.1 0.00 0.00 0.00 68 1015.0
20260510123046 13 331 3.2 16.1 0.00 0.00 0.00 68 1015.1
20260510121546 13 71 3.2 17.7 0.00 0.00 0.00 69 1015.2
20260510120047 13 327 3.2 17.7 0.00 0.00 0.00 68 1015.3
20260510114550 13 291 3.2 16.1 0.00 0.00 0.00 67 1015.3
20260510113051 14 112 3.2 14.5 0.00 0.00 0.00 64 1015.5
20260510111545 14 317 3.2 14.5 0.00 0.00 0.00 65 1015.5
20260510110049 15 318 6.4 19.3 0.00 0.00 0.00 63 1015.7
20260510104555 14 200 3.2 14.5 0.00 0.00 0.00 64 1015.6
20260510103052 14 83 4.8 16.1 0.00 0.00 0.00 64 1015.6
20260510101551 14 311 1.6 9.7 0.00 0.00 0.00 67 1015.7
20260510094601 13 25 3.2 14.5 0.00 0.00 0.00 69 1015.9
20260510093054 13 325 4.8 19.3 0.00 0.00 0.00 69 1016.0
20260510091550 12 47 3.2 12.9 0.00 0.00 0.00 71 1016.1
20260510090112 11 105 3.2 17.7 0.00 0.00 0.00 74 1016.2
20260510084549 11 343 3.2 16.1 0.00 0.00 0.00 75 1016.4
20260510083100 11 254 1.6 12.9 0.00 0.00 0.00 77 1016.4
20260510081544 11 329 0.0 14.5 0.00 0.00 0.00 79 1016.5
20260510080045 10 79 4.8 16.1 0.00 0.00 0.00 80 1016.6
20260510074552 10 134 4.8 16.1 0.00 0.00 0.00 81 1016.6
20260510073044 10 15 3.2 12.9 0.00 0.00 0.00 82 1016.5
20260510071553 10 147 3.2 12.9 0.00 0.00 0.00 83 1016.4
20260510070051 10 311 1.6 8.0 0.00 0.00 0.00 83 1016.4
20260510064545 9 67 1.6 14.5 0.00 0.00 0.00 84 1016.3
20260510063044 9 88 1.6 14.5 0.00 0.00 0.00 84 1016.3
20260510061551 9 267 1.6 11.3 0.00 0.00 0.00 84 1016.2
20260510060054 9 26 1.6 14.5 0.00 0.00 0.00 84 1016.0
20260510054547 9 53 3.2 11.3 0.00 0.00 0.00 84 1016.0
20260510053049 9 136 1.6 9.7 0.00 0.00 0.00 84 1016.1
20260510051555 8 84 1.6 6.4 0.00 0.00 0.00 84 1016.1
20260510050045 8 98 1.6 6.4 0.00 0.00 0.00 84 1016.1
20260510044554 8 132 1.6 8.0 0.00 0.00 0.00 84 1016.0
20260510043053 8 99 1.6 8.0 0.00 0.00 0.00 84 1016.0
20260510041553 9 0 1.6 6.4 0.00 0.00 0.00 83 1016.1
20260510040050 9 304 0.0 6.4 0.00 0.00 0.00 83 1016.3
20260510034552 9 0 0.0 4.8 0.00 0.00 0.00 83 1016.4
20260510033112 9 0 0.0 4.8 0.00 0.00 0.00 82 1016.5
20260510031553 9 0 1.6 9.7 0.00 0.00 0.00 82 1016.6
20260510030052 9 325 1.6 8.0 0.00 0.00 0.00 81 1016.6
20260510024552 9 0 1.6 11.3 0.00 0.00 0.00 80 1016.4
20260510023055 10 0 1.6 4.8 0.00 0.00 0.00 79 1016.6
20260510021546 10 0 1.6 6.4 0.00 0.00 0.00 77 1016.6
20260510020057 10 82 3.2 6.4 0.00 0.00 0.00 75 1016.5
20260510014553 10 331 1.6 8.0 0.00 0.00 0.00 74 1016.3
20260510013052 10 0 1.6 8.0 0.00 0.00 0.00 72 1016.5
20260510011552 11 355 0.0 6.4 0.00 0.00 0.00 70 1016.7
20260510010053 11 26 3.2 8.0 0.00 0.00 0.00 68 1016.4
20260510004547 11 0 1.6 14.5 0.00 0.00 0.00 66 1016.6
20260510003103 11 261 1.6 11.3 0.00 0.00 0.00 65 1016.6
20260510001542 11 72 0.0 9.7 0.00 0.00 0.00 65 1016.5
20260510000054 11 0 0.0 6.4 0.00 0.00 0.00 65 1016.6
20260509234554 12 355 0.0 6.4 0.00 0.00 0.00 64 1016.4
20260509233051 11 184 1.6 8.0 0.00 0.00 0.00 63 1016.3
20260509231558 11 0 0.0 4.8 0.00 0.00 0.00 63 1016.4
20260509230053 11 0 0.0 3.2 0.00 0.00 0.00 62 1016.3
20260509224556 12 0 0.0 3.2 0.00 0.00 0.00 60 1016.2
20260509223059 12 0 0.0 0.0 0.00 0.00 0.00 58 1016.1
20260509221552 12 0 0.0 0.0 0.00 0.00 0.00 57 1016.0
20260509220058 13 0 0.0 0.0 0.00 0.00 0.00 55 1016.1
20260509214555 13 0 0.0 1.6 0.00 0.00 0.00 54 1016.2
20260509213057 13 0 0.0 1.6 0.00 0.00 0.00 53 1016.4
20260509211552 14 0 0.0 4.8 0.00 0.00 0.00 51 1016.2
20260509210058 14 0 0.0 6.4 0.00 0.00 0.00 50 1016.0
20260509204601 15 65 1.6 6.4 0.00 0.00 0.00 51 1016.0
20260509203113 15 88 0.0 4.8 0.00 0.00 0.00 51 1015.9
20260509201553 15 131 0.0 6.4 0.00 0.00 0.00 50 1015.9
20260509200045 16 0 0.0 6.4 0.00 0.00 0.00 49 1015.6
20260509194552 16 82 0.0 6.4 0.00 0.00 0.00 48 1015.7
20260509193055 17 90 0.0 3.2 0.00 0.00 0.00 47 1015.6
20260509191550 17 0 0.0 4.8 0.00 0.00 0.00 46 1015.5
20260509190052 17 87 1.6 11.3 0.00 0.00 0.00 45 1015.2
20260509184552 18 51 1.6 8.0 0.00 0.00 0.00 44 1015.5
20260509183051 18 66 1.6 12.9 0.00 0.00 0.00 43 1015.2
20260509181606 19 93 1.6 6.4 0.00 0.00 0.00 43 1015.3
20260509180113 19 107 1.6 11.3 0.00 0.00 0.00 42 1015.1
20260509174546 20 132 3.2 8.0 0.00 0.00 0.00 42 1015.2
20260509173106 20 29 1.6 11.3 0.00 0.00 0.00 43 1015.1
20260509171553 20 80 3.2 11.3 0.00 0.00 0.00 41 1015.1
20260509170054 21 43 1.6 9.7 0.00 0.00 0.00 40 1015.4
20260509164551 21 80 1.6 12.9 0.00 0.00 0.00 39 1015.4
20260509163055 22 0 1.6 16.1 0.00 0.00 0.00 38 1015.1
20260509161600 22 87 3.2 14.5 0.00 0.00 0.00 38 1015.1
20260509160046 22 71 1.6 12.9 0.00 0.00 0.00 41 1015.3
20260509154556 22 122 1.6 12.9 0.00 0.00 0.00 41 1015.4
20260509153106 23 94 3.2 11.3 0.00 0.00 0.00 38 1015.4
20260509151559 23 117 3.2 9.7 0.00 0.00 0.00 37 1015.5
20260509150048 22 57 1.6 8.0 0.00 0.00 0.00 40 1015.4
20260509144552 23 103 3.2 11.3 0.00 0.00 0.00 38 1015.4
20260509143102 22 0 0.0 9.7 0.00 0.00 0.00 42 1015.2
20260509141553 22 56 1.6 12.9 0.00 0.00 0.00 39 1015.0